NANAKWA Weather Reports


Display with metric or nautical units.
time (UTC)temp
F
wind
direction
speed
MPH
gust
MPH
rain 1hr
in
rain 24hr
in
rain mn
in
humidity
%
barometer
mb
20260506223820 32 180 13.0 16.0 0.00 0.00 0.00 1021.0
20260506221020 32 180 13.0 16.0 0.00 0.00 0.00 1021.0
20260506214218 32 180 15.0 17.0 0.00 0.00 0.00 1021.0
20260506211417 32 180 15.0 17.0 0.00 0.00 0.00 1021.0
20260506204617 32 157 13.0 16.0 0.00 0.00 0.00 1021.0
20260506201816 32 157 13.0 16.0 0.00 0.00 0.00 1021.0
20260506195015 32 180 11.0 15.0 0.00 0.00 0.00 1021.0
20260506192215 32 180 11.0 15.0 0.00 0.00 0.00 1021.0
20260506185414 32 180 11.0 16.0 0.00 0.00 0.00 1020.0
20260506182614 32 180 11.0 16.0 0.00 0.00 0.00 1020.0
20260506175813 32 180 11.0 15.0 0.00 0.00 0.00 1020.0
20260506173012 32 180 11.0 15.0 0.00 0.00 0.00 1020.0
20260506170212 32 202 13.0 16.0 0.00 0.00 0.00 1020.0
20260506163411 32 202 13.0 16.0 0.00 0.00 0.00 1020.0
20260506160610 32 225 15.0 18.0 0.00 0.00 0.00 1019.0
20260506153810 32 225 15.0 18.0 0.00 0.00 0.00 1019.0
20260506151009 32 225 15.0 18.0 0.00 0.00 0.00 1019.0
20260506144208 32 225 16.0 20.0 0.00 0.00 0.00 1018.0
20260506141408 32 225 16.0 20.0 0.00 0.00 0.00 1018.0
20260506134607 32 225 16.0 18.0 0.00 0.00 0.00 1017.0
20260506131806 32 225 16.0 18.0 0.00 0.00 0.00 1017.0
20260506125006 32 225 19.0 23.0 0.00 0.00 0.00 1017.0
20260506122205 32 225 19.0 23.0 0.00 0.00 0.00 1017.0
20260506115404 32 225 17.0 22.0 0.00 0.00 0.00 1016.0
20260506105304 32 225 18.0 22.0 0.00 0.00 0.00 1016.0
20260506102501 32 225 18.0 22.0 0.00 0.00 0.00 1016.0
20260506095701 32 225 20.0 25.0 0.00 0.00 0.00 1015.0
20260506092900 32 225 20.0 25.0 0.00 0.00 0.00 1015.0
20260506090059 32 225 21.0 25.0 0.00 0.00 0.00 1014.0
20260506083259 32 225 21.0 25.0 0.00 0.00 0.00 1014.0
20260506080458 32 225 24.0 28.0 0.00 0.00 0.00 1014.0
20260506070857 32 225 24.0 28.0 0.00 0.00 0.00 1014.0
20260506060754 32 225 22.0 27.0 0.00 0.00 0.00 1013.0
20260506050651 32 202 14.0 19.0 0.00 0.00 0.00 1013.0
20260506043850 32 202 14.0 19.0 0.00 0.00 0.00 1013.0
20260506041050 32 202 14.0 19.0 0.00 0.00 0.00 1013.0
20260506034249 32 225 19.0 22.0 0.00 0.00 0.00 1012.0
20260506031449 32 225 19.0 22.0 0.00 0.00 0.00 1012.0
20260506024648 32 225 17.0 21.0 0.00 0.00 0.00 1012.0
20260506021847 32 225 17.0 21.0 0.00 0.00 0.00 1012.0
20260506015047 32 202 18.0 19.0 0.00 0.00 0.00 1012.0
20260506012246 32 202 18.0 19.0 0.00 0.00 0.00 1012.0
20260506005446 32 225 16.0 18.0 0.00 0.00 0.00 1012.0
20260506002645 32 225 16.0 18.0 0.00 0.00 0.00 1012.0
20260505235844 32 225 11.0 15.0 0.00 0.00 0.00 1012.0
20260505233044 32 225 11.0 15.0 0.00 0.00 0.00 1012.0